User: anonymous   Login
Location: La Pernelle
(49.6188°N, 1.2999°W)
Time: 20:06:05
(UTC+00:00)
Language:

COSMOS 1275 DEB - Orbit

View from above orbital plane
View from above orbital plane
View from above satellite
View from above satellite

Ground track
Ground track

The orbit data is extracted from the following two-line orbital elements,

1 42096U 81053PG  22004.03679551  .00001706  00000-0  86346-3 0  9996
2 42096  82.7263 119.3915 0053483 274.1043  85.4023 14.14928627415156
Epoch (UTC): 04 January 2022 00:52:59
Eccentricity: 0.0053483
inclination: 82.7263°
perigee height: 804 km
apogee height: 881 km
right ascension of ascending node: 119.3915°
argument of perigee: 274.1043°
revolutions per day: 14.14928627
mean anomaly at epoch: 85.4023°
orbit number at epoch: 41515

The dashed part of the orbit path shows where the satellite is in the earth's shadow,  

DLR